Weather History for Doha, Qatar

Change the Weather History Date:

Tuesday, March 13, 2012

  Actual Average Record
Temperature  
Mean Temperature 70 °F -  
Max Temperature 79 °F 84 °F 87 °F (2004)
Min Temperature 61 °F 65 °F 59 °F (1998)
Cooling Degree Days 5    
Growing Degree Days 20 (Base 50)    
Moisture  
Dew Point 55 °F    
Average Humidity 66    
Maximum Humidity 88    
Minimum Humidity 23    
Precipitation  
Precipitation 0.00 in 0.02 in - ()
Sea Level Pressure  
Sea Level Pressure 30.05 in    
Wind  
Wind Speed 5 mph ()    
Max Wind Speed 12 mph    
Max Gust Speed -    
Visibility 5.5 miles    
Events      
Averages and records for this station are not official NWS values.
T = Trace of Precipitation, MM = Missing Value Source: Averaged Metar Reports

Daily Weather History Graph

Daily Weather History Graph

Search for Another Location

Airport:

Trip Planner

Search our weather history database for the weather conditions in past years. The results will help you decide how hot, cold, wet, or windy it might be!

Date:

Astronomy

Mar. 13, 2012 Rise Set
Actual Time 5:44 AM AST 5:41 PM AST
Civil Twilight 5:21 AM AST 6:04 PM AST
Nautical Twilight 4:55 AM AST 6:31 PM AST
Astronomical Twilight 4:28 AM AST 6:57 PM AST
Moon 11:14 PM AST (3/13) 9:14 AM AST (3/13)
Length of Visible Light 12h 42m
Length of Day
11h 57m
Waning Gibbous, 69% of the Moon is Illuminated
Mar 13
Waning Gibbous
Mar 15
Last Quarter
Mar 22
New
Mar 30
First Quarter
Apr 6
Full

Hourly Weather History & Observations

Time (AST) Temp. Dew Point Humidity Pressure Visibility Wind Dir Wind Speed Gust Speed Precip Events Conditions
12:00 AM 64.4 °F 57.2 °F 77% 30.04 in - Calm Calm - N/A   Clear
12:30 AM 64.4 °F 55.4 °F 73% 30.04 in - SE 4.6 mph - N/A   Clear
1:00 AM 62.6 °F 55.4 °F 77% 30.04 in - Variable 2.3 mph - N/A   Clear
1:30 AM 64.4 °F 57.2 °F 77% 30.04 in - South 3.5 mph - N/A   Clear
2:00 AM 64.4 °F 57.2 °F 77% 30.04 in - Variable 2.3 mph - N/A   Clear
2:30 AM 62.6 °F 57.2 °F 82% 30.04 in - Variable 2.3 mph - N/A   Clear
3:00 AM 62 °F 56 °F 75% 30.04 in 9 mi SW 3.5 mph - -  
3:00 AM 62.6 °F 55.4 °F 77% 30.04 in - SW 3.5 mph - N/A   Clear
3:30 AM 62.6 °F 57.2 °F 82% 30.04 in - SW 3.5 mph - N/A   Clear
4:00 AM 62.6 °F 57.2 °F 82% 30.04 in - SW 3.5 mph - N/A   Clear
4:30 AM 62.6 °F 57.2 °F 82% 30.04 in - Variable 2.3 mph - N/A   Clear
5:00 AM 62.6 °F 57.2 °F 82% 30.04 in 5.6 mi SSW 3.5 mph - N/A   Unknown
5:30 AM 62.6 °F 57.2 °F 82% 30.04 in 5.6 mi SSW 3.5 mph - N/A   Unknown
6:00 AM 62.6 °F 57.2 °F 82% 30.06 in - SSW 3.5 mph - N/A   Clear
6:30 AM 62.6 °F 55.4 °F 77% 30.06 in - SW 4.6 mph - N/A   Clear
7:00 AM 62.6 °F 57.2 °F 82% 30.06 in - SW 5.8 mph - N/A   Clear
7:30 AM 64.4 °F 55.4 °F 73% 30.09 in - SSW 5.8 mph - N/A   Clear
8:00 AM 66.2 °F 53.6 °F 64% 30.09 in - SSW 4.6 mph - N/A   Clear
8:30 AM 68.0 °F 53.6 °F 60% 30.09 in - South 5.8 mph - N/A   Clear
9:00 AM 71 °F 53 °F 42% 30.12 in 7 mi South 6.9 mph - -   Clear
9:00 AM 71.6 °F 53.6 °F 53% 30.12 in - South 6.9 mph - N/A   Clear
9:30 AM 73.4 °F 46.4 °F 38% 30.12 in - South 6.9 mph - N/A   Clear
10:30 AM 78.8 °F 37.4 °F 23% 30.09 in - SSE 9.2 mph - N/A   Clear
11:00 AM 78.8 °F 37.4 °F 23% 30.09 in - SE 10.4 mph - N/A   Clear
11:30 AM 78.8 °F 39.2 °F 24% 30.06 in - SE 10.4 mph - N/A   Clear
12:00 PM 78.8 °F 42.8 °F 28% 30.06 in - SE 10.4 mph - N/A   Clear
12:30 PM 77.0 °F 46.4 °F 34% 30.06 in - SE 11.5 mph - N/A   Clear
1:00 PM 77.0 °F 50.0 °F 39% 30.04 in - SE 10.4 mph - N/A   Clear
1:30 PM 77.0 °F 44.6 °F 32% 30.04 in - SE 11.5 mph - N/A   Clear
2:00 PM 77.0 °F 46.4 °F 34% 30.04 in - SE 11.5 mph - N/A   Clear
2:30 PM 77.0 °F 50.0 °F 39% 30.04 in - SE 9.2 mph - N/A   Clear
3:00 PM 77 °F 56 °F 37% 30.05 in 6 mi ESE 9.2 mph - -   Clear
3:00 PM 77.0 °F 55.4 °F 47% 30.04 in - ESE 9.2 mph - N/A   Clear
3:30 PM 75.2 °F 59.0 °F 57% 30.04 in - ESE 8.1 mph - N/A   Clear
4:00 PM 73.4 °F 60.8 °F 65% 30.04 in - East 6.9 mph - N/A   Clear
4:30 PM 71.6 °F 60.8 °F 69% 30.04 in - East 8.1 mph - N/A   Clear
5:00 PM 71.6 °F 59.0 °F 64% 30.04 in - East 6.9 mph - N/A   Clear
5:30 PM 69.8 °F 62.6 °F 78% 30.04 in 5.6 mi East 6.9 mph - N/A   Unknown
6:00 PM 68.0 °F 62.6 °F 83% 30.04 in 5.0 mi ENE 5.8 mph - N/A   Unknown
6:30 PM 68.0 °F 62.6 °F 83% 30.04 in 5.0 mi ENE 6.9 mph - N/A   Unknown
7:00 PM 68.0 °F 62.6 °F 83% 30.04 in 5.0 mi ENE 6.9 mph - N/A   Unknown
7:30 PM 68.0 °F 60.8 °F 78% 30.04 in 5.0 mi ENE 6.9 mph - N/A   Unknown
8:00 PM 66.2 °F 60.8 °F 83% 30.04 in 5.6 mi East 5.8 mph - N/A   Unknown
8:30 PM 66.2 °F 62.6 °F 88% 30.06 in 5.0 mi East 6.9 mph - N/A   Unknown
9:00 PM 67 °F 63 °F 82% 30.07 in 5 mi East 6.9 mph - -   Haze
9:30 PM 66.2 °F 62.6 °F 88% 30.06 in 5.0 mi East 5.8 mph - N/A   Unknown
10:00 PM 66.2 °F 62.6 °F 88% 30.06 in 5.0 mi ESE 4.6 mph - N/A   Unknown
10:30 PM 66.2 °F 60.8 °F 83% 30.04 in 5.0 mi SE 5.8 mph - N/A   Unknown
11:00 PM 68.0 °F 60.8 °F 78% 30.06 in 5.0 mi ESE 4.6 mph - N/A   Unknown
11:30 PM 66.2 °F 60.8 °F 83% 30.04 in 5.0 mi SE 5.8 mph - N/A   Unknown